Alper Celik

Olheiro - Ankaragucu
3 Abr 2027
Sábado
Processo

Personalidade

Adaptabilidade (1) Ambição (5) Controvérsia (4) Lealdade (9) Pressão (8) Profissionalismo (14) Espírito Esportivo (4) Temperamento (6)

Perfil

Estilo de Treinamento Democrático
Licença Nacional A
Determinação 7
Gestão de Pessoas 4
Motivação 5
Disciplina 8
Satisfação no Trabalho
96%
Fadiga
0%
Função Olheiro
Salário 27.6K p/s
Contrato 14.03.2030

Desempenho

Comportamento Bom
Eficácia do Treinamento
43%
Desenvolvimento do Jogador
45%
Prevenção de Lesões
50%
Implementação Tática
50%

Eventos Recentes

Avaliou um jogador agora
Participou de uma reunião de recrutamento agora
Avaliou um jogador agora
Avaliou um jogador 7d atrás
Avaliou um jogador 7d atrás
Avaliou um jogador 7d atrás
Avaliou um jogador 7d atrás
Avaliou um jogador 7d atrás

Monitorando agora

107
Jogador Clube Status Habilidade Confiança Observado Última observação Último voto
John Okoye Ebuka Ittihad Ativo 127 / 106 40% 3 02.04.2027 -
Reece Cole Northampton Town Ativo 89 / 91 40% 1 02.04.2027 -
Abubakar Ghali Sigma Olomouc Ativo 101 / 127 40% 2 31.03.2027 -
Dylan Duffy Chesterfield Ativo 118 / 113 40% 1 31.03.2027 -
Waldo AE Kition Ativo 106 / 116 40% 1 30.03.2027 -
Ben Garrity Port Vale Ativo 117 / 88 40% 1 30.03.2027 -
Ibrahim Tarek Masr El Makasa Ativo 113 / 126 40% 7 29.03.2027 -
Vitinho Giresunspor Ativo 105 / 94 40% 1 29.03.2027 -
Zizo Al Ahly Ativo 133 / 127 40% 2 28.03.2027 -
Ibrahim Cissoko Zwolle Ativo 117 / 132 40% 3 28.03.2027 -
Ekain Orobengoa Real Sociedad Ativo 87 / 112 40% 1 28.03.2027 -
Freddie Draper Lincoln City Ativo 112 / 108 40% 1 28.03.2027 -
Mohammed Hussein Hearts of Oak Ativo 85 / 95 40% 2 27.03.2027 -
Johnly Yfeko Exeter City Ativo 109 / 128 40% 3 27.03.2027 -
Harry Cornick AFC Wimbledon Ativo 119 / 122 40% 1 25.03.2027 -
Luca Connell Barnsley Ativo 130 / 130 40% 4 22.03.2027 -
Yurii Klymchuk Kolos Ativo 105 / 103 40% 1 22.03.2027 -
Yevhen Pidlepenets Bukovyna Ativo 101 / 100 40% 2 19.03.2027 -
Nduduzo Sibiya Golden Arrows Ativo 125 / 123 40% 2 19.03.2027 -
Kyle John Port Vale Ativo 119 / 124 40% 2 18.03.2027 -
Wiktor Długosz Korona Ativo 103 / 98 40% 2 18.03.2027 -
Guilherme Santos Feirense Ativo 113 / 117 40% 1 17.03.2027 -
Stephen Duke-McKenna KAMAZ Ativo 83 / 94 40% 1 17.03.2027 -
Alexis Alégué Zbrojovka Brno Ativo 133 / 105 40% 1 17.03.2027 -
Danil Lipovoy Ufa Ativo 100 / 107 40% 2 14.03.2027 -
Nicolás Giménez Al Wasl Ativo 138 / 110 40% 1 14.03.2027 -
Connor Barrett Walsall Ativo 121 / 121 40% 2 13.03.2027 -
Petr Juliš Slovan Liberec Ativo 125 / 126 40% 1 10.03.2027 -
Ellis Iandolo Colchester United Ativo 116 / 111 40% 1 10.03.2027 -
Ali Soliman Masr El Makasa Ativo 113 / 133 40% 2 09.03.2027 -
Akinkunmi Amoo Ismaily Ativo 127 / 127 40% 3 09.03.2027 -
Fábio Tavares Newport County Ativo 117 / 84 40% 2 09.03.2027 -
Simphiwe Selepe Orlando Pirates Ativo 122 / 102 40% 1 09.03.2027 -
Niklas Vesterlund Utrecht Ativo 111 / 97 40% 2 07.03.2027 -
Adam Kaied Zamalek Ativo 109 / 101 40% 1 07.03.2027 -
Zakaria Ajoughlal Renaissance Ativo 90 / 109 40% 1 05.03.2027 -
David Ankeye Zeleznicar Pancevo Ativo 97 / 120 40% 1 05.03.2027 -
Marcus Harness Huddersfield Town Ativo 112 / 105 40% 1 05.03.2027 -
Vitalii Dakhnovskyi Bukovyna Ativo 98 / 126 40% 1 05.03.2027 -
Leo Goglichidze Rodina Ativo 107 / 98 40% 1 03.03.2027 -
Hesham Balaha Smouha Ativo 99 / 95 40% 1 03.03.2027 -
Liam Bennett Cambridge United Ativo 110 / 114 40% 2 02.03.2027 -
Charlie Webster Burton Albion Rejeitado 104 / 118 40% 2 02.03.2027 Mais informações
Edarlyn Reyes Arsenal Tula Ativo 127 / 102 40% 1 28.02.2027 -
Daniel Kyerewaa Reading Ativo 118 / 105 40% 2 26.02.2027 -
Lindon Emërllahu Polissia Ativo 101 / 114 40% 1 22.02.2027 -
Celso Sidney Cherno More Ativo 103 / 84 40% 2 20.02.2027 -
Dániel Lukács Puskas Akademia Ativo 95 / 122 40% 1 20.02.2027 -
Carlos Paraco Metalist Ativo 109 / 129 40% 2 19.02.2027 -
Adil Taoui Lokomotiv Sofia Ativo 117 / 92 40% 1 19.02.2027 -
Aleksandar Busnić Adana Demirspor Ativo 115 / 110 40% 1 16.02.2027 -
Gift Mokoena Free State Stars Ativo 100 / 125 40% 1 16.02.2027 -
Aitor Cantalapiedra OFI Ativo 139 / 119 40% 2 15.02.2027 -
Dean Campbell Northampton Town Ativo 113 / 106 40% 1 15.02.2027 -
Josué Tiendrébéogo IMT Ativo 112 / 119 40% 1 14.02.2027 -
Mohamed Azzi Dinamo Makhachkala Ativo 105 / 112 40% 1 14.02.2027 -
Lewis Richards Crawley Town Ativo 99 / 93 40% 1 11.02.2027 -
Itumeleng Manyama Free State Stars Ativo 100 / 102 40% 1 11.02.2027 -
Tomáš Zlatohlávek Teplice Ativo 124 / 121 40% 1 10.02.2027 -
Maksym Tretiakov Obolon Ativo 88 / 118 40% 1 09.02.2027 -
Solomon John Mlada Boleslav Ativo 124 / 100 40% 2 06.02.2027 -
Jonathan Sulemana BA All Stars Ativo 111 / 114 40% 1 06.02.2027 -
Jack Lankester Crewe Alexandra Ativo 105 / 95 40% 1 05.02.2027 -
Ermir Rashica Metalist Ativo 128 / 108 40% 1 05.02.2027 -
Jerónimo Porto Lapegüe Slask Ativo 92 / 101 40% 2 04.02.2027 -
Rafael Arace Najran Ativo 117 / 116 40% 1 04.02.2027 -
Fousseni Diabaté Kasimpasa Ativo 111 / 111 40% 1 03.02.2027 -
Prestige Mboungou TSC Ativo 101 / 108 40% 1 03.02.2027 -
Gilson Benchimol Akron Ativo 122 / 126 40% 2 26.01.2027 -
Mihael Mlinarić Zaglebie Ativo 103 / 105 40% 1 24.01.2027 -
Lazar Tufegdžić Cukaricki Ativo 111 / 91 40% 1 22.01.2027 -
Matěj Pulkrab Teplice Ativo 123 / 91 40% 1 22.01.2027 -
Iuri Tavares NK Varazdin Ativo 102 / 107 40% 3 21.01.2027 -
Juan Bezerra Zamalek Ativo 133 / 120 40% 2 17.01.2027 -
Géza Dávid Turi Grimsby Town Perdido 105 / 104 40% 1 17.01.2027 -
Lebogang Erasmus Platinum Stars Ativo 117 / 112 40% 1 15.01.2027 -
Jason Al-Fayha Ativo 115 / 106 40% 1 10.01.2027 -
Louay Ben Hassine Radnicki 1923 Rejeitado 100 / 124 40% 1 29.12.2026 Mais informações
Emi Rodriguez Leon Ativo 129 / 105 40% 1 29.12.2026 -
Brian Figueroa Morelia Rejeitado 125 / 92 40% 1 09.12.2026 Mais informações
Marko Musulin Tarxien Rainbows Ativo 96 / 95 40% 1 08.12.2026 -
Valentino Hinteregger Mattersburg Ativo 99 / 98 40% 1 01.12.2026 -
Simão Rocha CFR Cluj Ativo 102 / 133 40% 1 27.11.2026 -
Noah Ganaus OB Ativo 120 / 109 40% 2 23.11.2026 -
Maximiliano Meléndez Chacarita Juniors Ativo 103 / 121 40% 1 23.11.2026 -
Tiago Esidín Padideh Ativo 78 / 99 40% 1 21.11.2026 -
Kamil Fidan Sivasspor Ativo 109 / 106 40% 1 17.11.2026 -
Axel Guerra Chacarita Juniors Ativo 92 / 106 40% 1 17.11.2026 -
Erick Ngcobo Black Aces Ativo 115 / 82 40% 3 15.11.2026 -
Andrey Mazurin Yenisey Ativo 87 / 76 40% 1 15.11.2026 -
Niko Sigur Hajduk Split Ativo 107 / 135 40% 1 13.11.2026 -
Federico Versaci Talleres Ativo 119 / 128 40% 1 10.11.2026 -
Franco Fagúndez Estudiantes Ativo 129 / 120 40% 1 09.11.2026 -
Juan Pablo De la Reta Maipú Ativo 101 / 122 40% 1 04.11.2026 -
Atalay Babacan Umraniyespor Ativo 83 / 99 40% 1 20.10.2026 -
Yehor Tverdokhlib LNZ Ativo 113 / 117 40% 1 16.10.2026 -
Njegoš Petrović Vojvodina Ativo 108 / 105 40% 1 16.10.2026 -
Aleksa Latković NK Varazdin Ativo 95 / 97 40% 1 14.10.2026 -
Robin Gonzalez HNK Vukovar 1991 Ativo 125 / 112 40% 1 13.10.2026 -
Lukáš Vorlický Slovacko Ativo 122 / 103 40% 1 10.10.2026 -
Domagoj Bukvić NK Osijek Ativo 122 / 132 40% 1 10.10.2026 -
Tornike Morchiladze HNK Rijeka Ativo 109 / 131 40% 1 09.10.2026 -
David Kruse IFK Goteborg Ativo 132 / 122 40% 1 09.10.2026 -
Kelvin Boateng Austria Wien Ativo 89 / 94 40% 1 07.09.2026 -
Keagan Manyama Ajax Cape Town Ativo 112 / 96 40% 1 07.09.2026 -
Necip Uysal Besiktas Ativo 123 / 111 51% 1 03.08.2026 -
Augusto Schott Talleres Ativo 125 / 98 40% 1 01.08.2026 -